APRIZESAT 2 1 28366U 04025A 25310.20247329 .00000454 00000+0 15428-3 0 9991 2 28366 98.0822 124.0784 0105318 202.7515 156.8988 14.37891872119592 SAUDICOMSAT 1 1 28369U 04025D 25310.26114516 .00000746 00000+0 18272-3 0 9995 2 28369 98.5777 309.4174 0032072 348.5174 11.5287 14.55211412131709 SAUDICOMSAT 2 1 28370U 04025E 25309.46090801 .00000432 00000+0 12270-3 0 9991 2 28370 98.6666 310.3925 0054995 216.2780 143.4679 14.49762920127686 APRIZESAT 1 1 28372U 04025G 25310.25363099 .00000468 00000+0 12737-3 0 9991 2 28372 98.6316 309.9297 0045802 112.4880 248.1173 14.51585799129562 NANOSAT-1 1 28493U 04049B 25310.30960805 .00002057 00000+0 28291-3 0 9993 2 28493 98.1995 77.0605 0002936 297.3896 62.7015 14.79432008122484 SAUDICOMSAT 7 1 31119U 07012C 25310.18676300 .00000977 00000+0 18498-3 0 9992 2 31119 98.3488 275.2097 0056118 174.0267 186.1618 14.65681439989764 SAUDICOMSAT 6 1 31121U 07012E 25309.82959728 .00001075 00000+0 21637-3 0 9991 2 31121 98.3790 268.6674 0071242 302.9812 56.4554 14.62156764987539 SAUDICOMSAT 5 1 31124U 07012H 25309.85501086 .00001021 00000+0 18541-3 0 9998 2 31124 98.3203 275.6652 0049065 107.7912 252.8655 14.67681679990828 SAUDICOMSAT 3 1 31125U 07012J 25309.85596209 .00001437 00000+0 24471-3 0 9990 2 31125 98.2859 276.2479 0040523 39.6809 320.7349 14.70138006992009 SAUDICOMSAT 4 1 31127U 07012L 25309.84905751 .00000866 00000+0 17021-3 0 9995 2 31127 98.3686 273.3323 0062696 235.6484 123.8776 14.64095452988694 APRIZESAT 4 1 35684U 09041D 25310.16015672 .00001204 00000+0 15165-3 0 9996 2 35684 98.1686 15.8146 0042925 326.1005 33.7465 14.83368423878294 APRIZESAT 3 1 35686U 09041F 25309.86895484 .00003183 00000+0 28373-3 0 9993 2 35686 98.1766 87.9886 0064251 84.5264 276.3280 14.95207435882994 S-NET D 1 43186U 18014G 25310.27167354 .00009593 00000+0 53603-3 0 9997 2 43186 97.5485 211.6718 0010722 72.1092 288.1307 15.13666961425005 S-NET B 1 43187U 18014H 25310.27915558 .00009796 00000+0 54757-3 0 9991 2 43187 97.5490 211.6578 0011304 67.9694 292.2737 15.13642136425004 S-NET A 1 43188U 18014J 25310.27152875 .00009453 00000+0 52809-3 0 9993 2 43188 97.5500 211.8213 0011259 68.6744 291.5689 15.13672258425004 S-NET C 1 43189U 18014K 25310.28199624 .00009708 00000+0 54262-3 0 9996 2 43189 97.5514 211.8710 0012577 62.0673 298.1830 15.13635146423559 SALSAT 1 46495U 20068K 25309.93906180 .00010376 00000+0 41329-3 0 9997 2 46495 97.8759 295.2570 0011288 14.8450 345.3116 15.25383650281278 OOV-CUBE (TUBSAT-30) 1 60240U 24128F 25310.25116955 .00004254 00000+0 33339-3 0 9992 2 60240 61.9953 282.1566 0058833 86.4434 274.3383 15.01261493 72622